Time,TemperatureF,DewpointF,PressureIn,WindDirection,WindDirectionDegrees,WindSpeedMPH,WindSpeedGustMPH,Humidity,HourlyPrecipIn,Conditions,Clouds,dailyrainin,SoftwareType,DateUTC
2013-01-09 00:01:00,32.5,30.7,29.73,NW,313,0.0,0.0,93,0.00,,,0.00,LWC V2.00 B2112,2013-01-09 08:01:00,
2013-01-09 00:06:00,32.5,30.7,29.73,NW,313,0.0,2.0,93,0.00,,,0.00,LWC V2.00 B2112,2013-01-09 08:06:00,
2013-01-09 00:11:00,32.4,30.6,29.72,NW,315,0.0,7.0,93,0.00,,,0.00,LWC V2.00 B2112,2013-01-09 08:11:00,
2013-01-09 00:16:00,32.4,30.1,29.72,NW,311,6.0,6.0,91,0.00,,,0.00,LWC V2.00 B2112,2013-01-09 08:16:00,
2013-01-09 00:21:00,32.4,30.3,29.72,NW,323,6.0,6.0,92,0.00,,,0.00,LWC V2.00 B2112,2013-01-09 08:21:00,
2013-01-09 00:26:00,32.4,30.1,29.72,NW,316,2.0,4.0,91,0.00,,,0.00,LWC V2.00 B2112,2013-01-09 08:26:00,
2013-01-09 00:32:00,32.2,29.9,29.72,NW,322,0.0,2.0,91,0.00,,,0.00,LWC V2.00 B2112,2013-01-09 08:32:00,
2013-01-09 00:37:00,32.2,29.6,29.72,NW,322,1.0,4.0,90,0.00,,,0.00,LWC V2.00 B2112,2013-01-09 08:37:00,
2013-01-09 00:42:00,32.1,29.8,29.72,North,10,0.0,1.0,91,0.00,,,0.00,LWC V2.00 B2112,2013-01-09 08:42:00,
2013-01-09 00:47:00,32.1,29.8,29.72,North,354,1.0,1.0,91,0.00,,,0.00,LWC V2.00 B2112,2013-01-09 08:47:00,
2013-01-09 00:52:00,32.1,29.8,29.72,WNW,288,4.0,4.0,91,0.00,,,0.00,LWC V2.00 B2112,2013-01-09 08:52:00,
2013-01-09 00:57:00,31.9,30.1,29.71,WNW,288,1.0,4.0,93,0.00,,,0.00,LWC V2.00 B2112,2013-01-09 08:57:00,
2013-01-09 01:02:00,31.8,29.5,29.71,WNW,291,1.0,2.0,91,0.00,,,0.00,LWC V2.00 B2112,2013-01-09 09:02:00,
2013-01-09 01:07:00,31.8,29.5,29.71,NW,304,2.0,6.0,91,0.00,,,0.00,LWC V2.00 B2112,2013-01-09 09:07:00,
2013-01-09 01:12:00,31.8,29.5,29.70,NW,308,4.0,8.0,91,0.00,,,0.00,LWC V2.00 B2112,2013-01-09 09:12:00,
2013-01-09 01:17:00,31.6,29.0,29.70,NW,311,2.0,4.0,90,0.00,,,0.00,LWC V2.00 B2112,2013-01-09 09:17:00,
2013-01-09 01:22:00,31.6,29.0,29.70,WNW,302,1.0,4.0,90,0.00,,,0.00,LWC V2.00 B2112,2013-01-09 09:22:00,
2013-01-09 01:27:00,31.6,29.3,29.70,WNW,301,0.0,2.0,91,0.00,,,0.00,LWC V2.00 B2112,2013-01-09 09:27:00,
2013-01-09 01:32:00,31.5,28.9,29.70,WNW,301,0.0,0.0,90,0.00,,,0.00,LWC V2.00 B2112,2013-01-09 09:32:00,
2013-01-09 01:37:00,31.3,28.7,29.70,WNW,302,2.0,6.0,90,0.00,,,0.00,LWC V2.00 B2112,2013-01-09 09:37:00,
2013-01-09 01:42:00,31.2,28.6,29.69,WNW,301,0.0,2.0,90,0.00,,,0.00,LWC V2.00 B2112,2013-01-09 09:42:00,
2013-01-09 01:47:00,31.0,28.7,29.69,NW,306,0.0,2.0,91,0.00,,,0.00,LWC V2.00 B2112,2013-01-09 09:47:00,
2013-01-09 01:52:00,30.9,28.9,29.69,WNW,289,2.0,7.0,92,0.00,,,0.00,LWC V2.00 B2112,2013-01-09 09:52:00,
2013-01-09 01:57:00,30.7,27.9,29.68,WNW,284,2.0,6.0,89,0.00,,,0.00,LWC V2.00 B2112,2013-01-09 09:57:00,
2013-01-09 02:02:00,30.6,28.0,29.68,WNW,291,0.0,0.0,90,0.00,,,0.00,LWC V2.00 B2112,2013-01-09 10:02:00,
2013-01-09 02:07:00,30.3,27.7,29.68,WNW,291,0.0,0.0,90,0.00,,,0.00,LWC V2.00 B2112,2013-01-09 10:07:00,
2013-01-09 02:12:00,30.3,28.0,29.69,WNW,291,0.0,0.0,91,0.00,,,0.00,LWC V2.00 B2112,2013-01-09 10:12:00,
2013-01-09 02:17:00,30.0,27.7,29.69,WNW,291,0.0,0.0,91,0.00,,,0.00,LWC V2.00 B2112,2013-01-09 10:17:00,
2013-01-09 02:22:00,30.0,28.0,29.69,WNW,294,1.0,4.0,92,0.00,,,0.00,LWC V2.00 B2112,2013-01-09 10:22:00,
2013-01-09 02:27:00,30.0,28.0,29.67,WNW,295,0.0,2.0,92,0.00,,,0.00,LWC V2.00 B2112,2013-01-09 10:27:00,
2013-01-09 02:32:00,30.0,28.0,29.67,WNW,292,4.0,6.0,92,0.00,,,0.00,LWC V2.00 B2112,2013-01-09 10:32:00,
2013-01-09 02:37:00,30.0,27.7,29.67,North,350,0.0,4.0,91,0.00,,,0.00,LWC V2.00 B2112,2013-01-09 10:37:00,
2013-01-09 02:42:00,30.0,27.7,29.68,North,352,0.0,0.0,91,0.00,,,0.00,LWC V2.00 B2112,2013-01-09 10:42:00,
2013-01-09 02:47:00,30.1,28.1,29.68,WNW,284,0.0,6.0,92,0.00,,,0.00,LWC V2.00 B2112,2013-01-09 10:47:00,
2013-01-09 02:52:00,30.0,27.7,29.68,WNW,296,0.0,1.0,91,0.00,,,0.00,LWC V2.00 B2112,2013-01-09 10:52:00,
2013-01-09 02:57:00,30.1,27.8,29.67,WNW,295,0.0,4.0,91,0.00,,,0.00,LWC V2.00 B2112,2013-01-09 10:57:00,
2013-01-09 03:02:00,29.8,27.5,29.67,WNW,295,1.0,2.0,91,0.00,,,0.00,LWC V2.00 B2112,2013-01-09 11:02:00,
2013-01-09 03:07:00,29.8,27.5,29.67,WNW,299,1.0,6.0,91,0.00,,,0.00,LWC V2.00 B2112,2013-01-09 11:07:00,
2013-01-09 03:12:00,30.1,27.5,29.66,North,349,4.0,8.0,90,0.00,,,0.00,LWC V2.00 B2112,2013-01-09 11:12:00,
2013-01-09 03:17:00,30.1,27.5,29.66,West,278,0.0,6.0,90,0.00,,,0.00,LWC V2.00 B2112,2013-01-09 11:17:00,
2013-01-09 03:22:00,30.1,27.8,29.66,West,278,2.0,10.0,91,0.00,,,0.00,LWC V2.00 B2112,2013-01-09 11:22:00,
2013-01-09 03:27:00,30.3,27.5,29.65,West,274,4.0,7.0,89,0.00,,,0.00,LWC V2.00 B2112,2013-01-09 11:27:00,
2013-01-09 03:32:00,30.3,27.5,29.65,WSW,244,0.0,1.0,89,0.00,,,0.00,LWC V2.00 B2112,2013-01-09 11:32:00,
2013-01-09 03:37:00,30.1,27.5,29.65,West,274,4.0,6.0,90,0.00,,,0.00,LWC V2.00 B2112,2013-01-09 11:37:00,
2013-01-09 03:42:00,30.3,27.7,29.65,WNW,284,2.0,4.0,90,0.00,,,0.00,LWC V2.00 B2112,2013-01-09 11:42:00,
2013-01-09 03:47:00,30.3,27.5,29.65,West,277,1.0,2.0,89,0.00,,,0.00,LWC V2.00 B2112,2013-01-09 11:47:00,
2013-01-09 03:52:00,30.3,27.5,29.65,NNW,328,0.0,6.0,89,0.00,,,0.00,LWC V2.00 B2112,2013-01-09 11:52:00,
2013-01-09 03:57:00,30.1,27.0,29.66,WNW,287,4.0,7.0,88,0.00,,,0.00,LWC V2.00 B2112,2013-01-09 11:57:00,
2013-01-09 04:02:00,29.8,27.2,29.66,West,278,8.0,8.0,90,0.00,,,0.00,LWC V2.00 B2112,2013-01-09 12:02:00,
2013-01-09 04:07:00,30.0,26.9,29.66,WNW,302,8.0,13.0,88,0.00,,,0.00,LWC V2.00 B2112,2013-01-09 12:07:00,
2013-01-09 04:12:00,30.0,26.6,29.64,WNW,288,6.0,8.0,87,0.00,,,0.00,LWC V2.00 B2112,2013-01-09 12:12:00,
2013-01-09 04:17:00,29.8,27.0,29.64,NW,308,2.0,7.0,89,0.00,,,0.00,LWC V2.00 B2112,2013-01-09 12:17:00,
2013-01-09 04:22:00,30.0,27.2,29.64,NW,322,4.0,8.0,89,0.00,,,0.00,LWC V2.00 B2112,2013-01-09 12:22:00,
2013-01-09 04:27:00,30.0,26.9,29.64,West,280,2.0,6.0,88,0.00,,,0.00,LWC V2.00 B2112,2013-01-09 12:27:00,
2013-01-09 04:32:00,30.0,27.2,29.64,WNW,288,2.0,10.0,89,0.00,,,0.00,LWC V2.00 B2112,2013-01-09 12:32:00,
2013-01-09 04:37:00,30.1,27.0,29.64,NW,315,7.0,8.0,88,0.00,,,0.00,LWC V2.00 B2112,2013-01-09 12:37:00,
2013-01-09 04:42:00,30.1,27.0,29.63,WNW,302,4.0,6.0,88,0.00,,,0.00,LWC V2.00 B2112,2013-01-09 12:42:00,
2013-01-09 04:47:00,30.1,27.5,29.63,West,278,2.0,6.0,90,0.00,,,0.00,LWC V2.00 B2112,2013-01-09 12:47:00,
2013-01-09 04:52:00,30.3,27.5,29.63,WSW,250,2.0,10.0,89,0.00,,,0.00,LWC V2.00 B2112,2013-01-09 12:52:00,
2013-01-09 04:57:00,30.4,27.6,29.63,NNW,335,10.0,10.0,89,0.00,,,0.00,LWC V2.00 B2112,2013-01-09 12:57:00,
2013-01-09 05:02:00,30.6,27.5,29.63,NNW,329,6.0,9.0,88,0.00,,,0.00,LWC V2.00 B2112,2013-01-09 13:02:00,
2013-01-09 05:07:00,30.9,27.8,29.63,NNW,332,2.0,8.0,88,0.00,,,0.00,LWC V2.00 B2112,2013-01-09 13:07:00,
2013-01-09 05:12:00,30.7,27.3,29.62,NNW,344,6.0,8.0,87,0.00,,,0.00,LWC V2.00 B2112,2013-01-09 13:12:00,
2013-01-09 05:17:00,30.7,27.3,29.62,NNW,346,6.0,11.0,87,0.00,,,0.00,LWC V2.00 B2112,2013-01-09 13:17:00,
2013-01-09 05:22:00,30.6,27.5,29.62,WNW,294,4.0,8.0,88,0.00,,,0.00,LWC V2.00 B2112,2013-01-09 13:22:00,
2013-01-09 05:27:00,30.3,27.5,29.62,NW,320,2.0,7.0,89,0.00,,,0.00,LWC V2.00 B2112,2013-01-09 13:27:00,
2013-01-09 05:32:00,30.0,27.2,29.62,WNW,287,8.0,8.0,89,0.00,,,0.00,LWC V2.00 B2112,2013-01-09 13:32:00,
2013-01-09 05:37:00,30.0,27.4,29.62,NNW,344,6.0,8.0,90,0.00,,,0.00,LWC V2.00 B2112,2013-01-09 13:37:00,
2013-01-09 05:42:00,30.3,27.5,29.61,NW,323,8.0,10.0,89,0.00,,,0.00,LWC V2.00 B2112,2013-01-09 13:42:00,
2013-01-09 05:47:00,30.3,27.7,29.61,NNW,347,8.0,10.0,90,0.00,,,0.00,LWC V2.00 B2112,2013-01-09 13:47:00,
2013-01-09 05:52:00,30.6,27.5,29.61,NW,306,7.0,10.0,88,0.00,,,0.00,LWC V2.00 B2112,2013-01-09 13:52:00,
2013-01-09 05:57:00,30.6,27.2,29.60,NW,311,6.0,13.0,87,0.00,,,0.00,LWC V2.00 B2112,2013-01-09 13:57:00,
2013-01-09 06:02:00,30.6,27.5,29.60,NNW,337,1.0,6.0,88,0.00,,,0.00,LWC V2.00 B2112,2013-01-09 14:02:00,
2013-01-09 06:07:00,30.4,27.3,29.60,North,353,8.0,9.0,88,0.00,,,0.00,LWC V2.00 B2112,2013-01-09 14:07:00,
2013-01-09 06:12:00,30.1,26.7,29.59,NW,311,7.0,9.0,87,0.00,,,0.00,LWC V2.00 B2112,2013-01-09 14:12:00,
2013-01-09 06:17:00,30.4,27.3,29.59,West,281,10.0,16.0,88,0.00,,,0.00,LWC V2.00 B2112,2013-01-09 14:17:00,
2013-01-09 06:22:00,30.7,27.6,29.59,NNW,347,4.0,10.0,88,0.00,,,0.00,LWC V2.00 B2112,2013-01-09 14:22:00,
2013-01-09 06:27:00,30.7,27.0,29.58,WNW,294,7.0,13.0,86,0.00,,,0.00,LWC V2.00 B2112,2013-01-09 14:27:00,
2013-01-09 06:32:00,30.4,27.6,29.58,NW,308,8.0,11.0,89,0.00,,,0.00,LWC V2.00 B2112,2013-01-09 14:32:00,
2013-01-09 06:37:00,30.4,27.6,29.58,NW,304,6.0,6.0,89,0.00,,,0.00,LWC V2.00 B2112,2013-01-09 14:37:00,
2013-01-09 06:42:00,30.4,27.6,29.58,NW,320,8.0,8.0,89,0.00,,,0.00,LWC V2.00 B2112,2013-01-09 14:42:00,
2013-01-09 06:47:00,30.3,27.5,29.58,NNW,343,4.0,7.0,89,0.00,,,0.00,LWC V2.00 B2112,2013-01-09 14:47:00,
2013-01-09 06:52:00,30.4,27.6,29.58,North,359,8.0,8.0,89,0.00,,,0.00,LWC V2.00 B2112,2013-01-09 14:52:00,
2013-01-09 06:57:00,30.6,27.8,29.58,North,349,4.0,4.0,89,0.00,,,0.00,LWC V2.00 B2112,2013-01-09 14:57:00,
2013-01-09 07:02:00,30.6,27.8,29.58,West,275,6.0,6.0,89,0.00,,,0.00,LWC V2.00 B2112,2013-01-09 15:02:00,
2013-01-09 07:07:00,30.6,27.8,29.58,WNW,295,10.0,10.0,89,0.00,,,0.00,LWC V2.00 B2112,2013-01-09 15:07:00,
2013-01-09 07:12:00,30.1,27.0,29.58,West,281,4.0,6.0,88,0.00,,,0.00,LWC V2.00 B2112,2013-01-09 15:12:00,
2013-01-09 07:17:00,30.1,27.5,29.58,NNW,330,8.0,13.0,90,0.00,,,0.00,LWC V2.00 B2112,2013-01-09 15:17:00,
2013-01-09 07:22:00,30.1,27.5,29.58,NNW,332,7.0,14.0,90,0.00,,,0.00,LWC V2.00 B2112,2013-01-09 15:22:00,
2013-01-09 07:27:00,30.6,28.0,29.57,NNW,333,6.0,8.0,90,0.00,,,0.00,LWC V2.00 B2112,2013-01-09 15:27:00,
2013-01-09 07:32:00,30.1,27.3,29.57,NW,311,4.0,9.0,89,0.00,,,0.00,LWC V2.00 B2112,2013-01-09 15:32:00,
2013-01-09 07:37:00,30.0,27.7,29.57,NNW,333,7.0,8.0,91,0.00,,,0.00,LWC V2.00 B2112,2013-01-09 15:37:00,
2013-01-09 07:42:00,29.7,27.4,29.57,NW,320,7.0,9.0,91,0.00,,,0.00,LWC V2.00 B2112,2013-01-09 15:42:00,
2013-01-09 07:47:00,29.7,26.9,29.57,West,263,13.0,13.0,89,0.00,,,0.00,LWC V2.00 B2112,2013-01-09 15:47:00,
2013-01-09 07:52:00,29.7,26.9,29.57,NW,315,9.0,9.0,89,0.00,,,0.00,LWC V2.00 B2112,2013-01-09 15:52:00,
2013-01-09 07:57:00,29.7,27.1,29.57,WNW,302,10.0,10.0,90,0.00,,,0.00,LWC V2.00 B2112,2013-01-09 15:57:00,
2013-01-09 08:02:00,30.1,27.5,29.57,NNW,333,8.0,10.0,90,0.00,,,0.00,LWC V2.00 B2112,2013-01-09 16:02:00,
2013-01-09 08:07:00,29.8,26.7,29.57,WNW,299,9.0,10.0,88,0.00,,,0.00,LWC V2.00 B2112,2013-01-09 16:07:00,
2013-01-09 08:12:00,29.4,26.6,29.56,WNW,289,7.0,8.0,89,0.00,,,0.00,LWC V2.00 B2112,2013-01-09 16:12:00,
2013-01-09 08:17:00,29.3,27.0,29.56,NW,306,6.0,7.0,91,0.00,,,0.00,LWC V2.00 B2112,2013-01-09 16:17:00,
2013-01-09 08:22:00,29.5,27.2,29.56,WNW,301,4.0,9.0,91,0.00,,,0.00,LWC V2.00 B2112,2013-01-09 16:22:00,
2013-01-09 08:27:00,30.0,27.2,29.56,NNW,339,6.0,8.0,89,0.00,,,0.00,LWC V2.00 B2112,2013-01-09 16:27:00,
2013-01-09 08:32:00,30.0,27.2,29.56,NNW,335,6.0,14.0,89,0.00,,,0.00,LWC V2.00 B2112,2013-01-09 16:32:00,
2013-01-09 08:37:00,30.0,27.4,29.56,NW,319,10.0,14.0,90,0.00,,,0.00,LWC V2.00 B2112,2013-01-09 16:37:00,
2013-01-09 08:42:00,30.1,27.0,29.56,NW,312,7.0,9.0,88,0.00,,,0.00,LWC V2.00 B2112,2013-01-09 16:42:00,
2013-01-09 08:47:00,30.3,27.2,29.56,NW,308,8.0,11.0,88,0.00,,,0.00,LWC V2.00 B2112,2013-01-09 16:47:00,
2013-01-09 08:52:00,30.1,27.3,29.56,NW,312,8.0,10.0,89,0.00,,,0.00,LWC V2.00 B2112,2013-01-09 16:52:00,
2013-01-09 08:57:00,30.4,27.3,29.55,NW,316,10.0,15.0,88,0.00,,,0.00,LWC V2.00 B2112,2013-01-09 16:57:00,
2013-01-09 09:02:00,30.4,27.0,29.55,NW,306,11.0,15.0,87,0.00,,,0.00,LWC V2.00 B2112,2013-01-09 17:02:00,
2013-01-09 09:07:00,30.9,27.8,29.55,NW,306,14.0,14.0,88,0.00,,,0.00,LWC V2.00 B2112,2013-01-09 17:07:00,
2013-01-09 09:12:00,30.9,27.8,29.55,NNW,328,10.0,14.0,88,0.00,,,0.00,LWC V2.00 B2112,2013-01-09 17:12:00,
2013-01-09 09:17:00,31.2,27.5,29.55,NNW,346,8.0,8.0,86,0.00,,,0.00,LWC V2.00 B2112,2013-01-09 17:17:00,
2013-01-09 09:22:00,31.6,27.9,29.55,WNW,298,8.0,11.0,86,0.00,,,0.00,LWC V2.00 B2112,2013-01-09 17:22:00,
2013-01-09 09:27:00,31.8,27.8,29.55,NW,312,8.0,9.0,85,0.00,,,0.00,LWC V2.00 B2112,2013-01-09 17:27:00,
2013-01-09 09:32:00,32.5,29.1,29.55,NW,326,10.0,11.0,87,0.00,,,0.00,LWC V2.00 B2112,2013-01-09 17:32:00,
2013-01-09 09:37:00,32.9,28.6,29.55,NW,308,9.0,9.0,84,0.00,,,0.00,LWC V2.00 B2112,2013-01-09 17:37:00,
2013-01-09 09:42:00,33.2,29.2,29.55,WNW,282,4.0,11.0,85,0.00,,,0.00,LWC V2.00 B2112,2013-01-09 17:42:00,
2013-01-09 09:47:00,33.4,29.4,29.55,NNW,336,4.0,10.0,85,0.00,,,0.00,LWC V2.00 B2112,2013-01-09 17:47:00,
2013-01-09 09:52:00,33.8,29.8,29.55,NW,308,6.0,6.0,85,0.00,,,0.00,LWC V2.00 B2112,2013-01-09 17:52:00,
2013-01-09 09:57:00,34.6,29.7,29.56,NNW,328,6.0,8.0,82,0.00,,,0.00,LWC V2.00 B2112,2013-01-09 17:57:00,
2013-01-09 10:02:00,34.9,30.6,29.56,NNW,337,6.0,9.0,84,0.00,,,0.00,LWC V2.00 B2112,2013-01-09 18:02:00,
2013-01-09 10:07:00,35.0,30.1,29.56,NNW,344,7.0,11.0,82,0.00,,,0.00,LWC V2.00 B2112,2013-01-09 18:07:00,
2013-01-09 10:12:00,34.9,30.6,29.56,NNW,339,8.0,8.0,84,0.00,,,0.00,LWC V2.00 B2112,2013-01-09 18:12:00,
2013-01-09 10:17:00,34.9,30.9,29.56,WNW,285,6.0,8.0,85,0.00,,,0.00,LWC V2.00 B2112,2013-01-09 18:17:00,
2013-01-09 10:22:00,35.0,30.7,29.56,WNW,302,6.0,7.0,84,0.00,,,0.00,LWC V2.00 B2112,2013-01-09 18:22:00,
2013-01-09 10:27:00,35.2,30.9,29.55,NNW,328,8.0,10.0,84,0.00,,,0.00,LWC V2.00 B2112,2013-01-09 18:27:00,
2013-01-09 10:32:00,35.5,31.2,29.55,NW,323,2.0,6.0,84,0.00,,,0.00,LWC V2.00 B2112,2013-01-09 18:32:00,
2013-01-09 10:37:00,35.6,31.3,29.55,WNW,299,8.0,9.0,84,0.00,,,0.00,LWC V2.00 B2112,2013-01-09 18:37:00,
2013-01-09 10:41:00,36.0,31.3,29.55,WNW,299,7.0,15.0,83,0.00,,,0.00,LWC V2.00 B2112,2013-01-09 18:41:00,
2013-01-09 10:44:00,36.2,31.2,29.55,NNW,329,8.0,15.0,82,0.00,,,0.00,LWC V2.00 B2112,2013-01-09 18:44:00,
2013-01-09 10:48:00,36.5,31.2,29.55,NW,304,8.0,11.0,81,0.00,,,0.00,LWC V2.00 B2112,2013-01-09 18:48:00,
2013-01-09 10:53:00,36.5,31.8,29.55,West,261,4.0,10.0,83,0.00,,,0.01,LWC V2.00 B2112,2013-01-09 18:53:00,
2013-01-09 10:58:00,36.6,31.9,29.54,WSW,258,0.0,4.0,83,0.00,,,0.01,LWC V2.00 B2112,2013-01-09 18:58:00,
2013-01-09 11:03:00,36.9,32.2,29.54,WNW,298,2.0,6.0,83,0.00,,,0.01,LWC V2.00 B2112,2013-01-09 19:03:00,
2013-01-09 11:08:00,36.9,32.5,29.54,West,265,0.0,6.0,84,0.00,,,0.01,LWC V2.00 B2112,2013-01-09 19:08:00,
2013-01-09 11:13:00,37.6,32.6,29.55,West,265,2.0,4.0,82,0.00,,,0.01,LWC V2.00 B2112,2013-01-09 19:13:00,
2013-01-09 11:18:00,38.0,33.6,29.55,SW,216,0.0,2.0,84,0.00,,,0.02,LWC V2.00 B2112,2013-01-09 19:18:00,
2013-01-09 11:23:00,38.8,33.5,29.55,ENE,78,0.0,4.0,81,0.15,,,0.03,LWC V2.00 B2112,2013-01-09 19:23:00,
2013-01-09 11:28:00,38.9,33.9,29.55,ENE,78,0.0,0.0,82,0.10,,,0.03,LWC V2.00 B2112,2013-01-09 19:28:00,
2013-01-09 11:33:00,39.1,34.7,29.55,South,169,1.0,2.0,84,0.20,,,0.05,LWC V2.00 B2112,2013-01-09 19:33:00,
2013-01-09 11:38:00,39.3,34.3,29.55,SSE,158,0.0,0.0,82,0.10,,,0.06,LWC V2.00 B2112,2013-01-09 19:38:00,
2013-01-09 11:43:00,39.1,35.0,29.55,SSE,162,0.0,0.0,85,0.20,,,0.07,LWC V2.00 B2112,2013-01-09 19:43:00,
2013-01-09 11:48:00,39.1,35.0,29.55,South,188,0.0,0.0,85,0.10,,,0.08,LWC V2.00 B2112,2013-01-09 19:48:00,
2013-01-09 11:53:00,39.2,35.1,29.55,South,176,2.0,2.0,85,0.16,,,0.09,LWC V2.00 B2112,2013-01-09 19:53:00,
2013-01-09 11:58:00,39.6,35.8,29.55,South,181,0.0,1.0,86,0.10,,,0.10,LWC V2.00 B2112,2013-01-09 19:58:00,
2013-01-09 12:03:00,40.8,35.4,29.55,West,264,7.0,7.0,81,0.13,,,0.11,LWC V2.00 B2112,2013-01-09 20:03:00,
2013-01-09 12:08:00,42.9,29.2,29.55,ENE,78,2.0,6.0,58,0.21,,,0.13,LWC V2.00 B2112,2013-01-09 20:08:00,
2013-01-09 12:13:00,44.5,29.8,29.53,NW,315,9.0,9.0,56,0.12,,,0.13,LWC V2.00 B2112,2013-01-09 20:13:00,
2013-01-09 12:18:00,45.2,29.1,29.53,NE,51,10.0,10.0,53,0.17,,,0.15,LWC V2.00 B2112,2013-01-09 20:18:00,
2013-01-09 12:23:00,45.8,29.7,29.53,North,357,8.0,14.0,53,0.23,,,0.17,LWC V2.00 B2112,2013-01-09 20:23:00,
2013-01-09 12:28:00,46.2,28.6,29.52,North,352,2.0,10.0,50,0.09,,,0.17,LWC V2.00 B2112,2013-01-09 20:28:00,
2013-01-09 12:33:00,46.1,28.5,29.52,East,80,1.0,16.0,50,0.08,,,0.18,LWC V2.00 B2112,2013-01-09 20:33:00,
2013-01-09 12:38:00,46.1,30.4,29.52,WNW,284,2.0,8.0,54,0.11,,,0.19,LWC V2.00 B2112,2013-01-09 20:38:00,
2013-01-09 12:43:00,45.4,33.9,29.53,WNW,292,0.0,4.0,64,0.07,,,0.19,LWC V2.00 B2112,2013-01-09 20:43:00,
2013-01-09 12:48:00,44.5,36.0,29.53,WNW,292,0.0,0.0,72,0.05,,,0.19,LWC V2.00 B2112,2013-01-09 20:48:00,
2013-01-09 12:53:00,44.6,28.1,29.53,West,265,6.0,11.0,52,0.00,,,0.19,LWC V2.00 B2112,2013-01-09 20:53:00,
2013-01-09 12:58:00,45.1,29.0,29.55,NW,315,2.0,6.0,53,0.00,,,0.19,LWC V2.00 B2112,2013-01-09 20:58:00,
2013-01-09 13:03:00,46.2,28.1,29.55,NW,323,7.0,18.0,49,0.00,,,0.20,LWC V2.00 B2112,2013-01-09 21:03:00,
2013-01-09 13:08:00,46.4,29.3,29.55,WNW,302,8.0,8.0,51,0.00,,,0.20,LWC V2.00 B2112,2013-01-09 21:08:00,
2013-01-09 13:13:00,46.7,28.1,29.56,North,359,10.0,15.0,48,0.05,,,0.21,LWC V2.00 B2112,2013-01-09 21:13:00,
2013-01-09 13:18:00,47.0,27.3,29.56,NNW,335,13.0,25.0,46,0.05,,,0.21,LWC V2.00 B2112,2013-01-09 21:18:00,
2013-01-09 13:23:00,46.8,28.7,29.56,North,356,7.0,10.0,49,0.05,,,0.21,LWC V2.00 B2112,2013-01-09 21:23:00,
2013-01-09 13:28:00,46.7,27.6,29.56,NW,304,10.0,13.0,47,0.04,,,0.21,LWC V2.00 B2112,2013-01-09 21:28:00,
2013-01-09 13:33:00,46.8,27.6,29.56,NNW,346,6.0,14.0,47,0.00,,,0.21,LWC V2.00 B2112,2013-01-09 21:33:00,
2013-01-09 13:38:00,46.4,28.8,29.56,SW,220,2.0,10.0,50,0.00,,,0.21,LWC V2.00 B2112,2013-01-09 21:38:00,
2013-01-09 13:43:00,46.5,27.4,29.57,East,96,1.0,2.0,47,0.00,,,0.21,LWC V2.00 B2112,2013-01-09 21:43:00,
2013-01-09 13:48:00,46.5,27.9,29.57,NNW,335,6.0,6.0,48,0.00,,,0.22,LWC V2.00 B2112,2013-01-09 21:48:00,
2013-01-09 13:53:00,46.4,28.3,29.57,NNW,343,4.0,8.0,49,0.00,,,0.22,LWC V2.00 B2112,2013-01-09 21:53:00,
2013-01-09 13:58:00,46.0,27.4,29.57,West,277,9.0,11.0,48,0.00,,,0.22,LWC V2.00 B2112,2013-01-09 21:58:00,
2013-01-09 14:03:00,45.5,29.4,29.57,NW,312,2.0,11.0,53,0.00,,,0.23,LWC V2.00 B2112,2013-01-09 22:03:00,
2013-01-09 14:08:00,45.4,27.9,29.57,WSW,256,10.0,10.0,50,0.00,,,0.23,LWC V2.00 B2112,2013-01-09 22:08:00,
2013-01-09 14:13:00,45.2,27.7,29.59,West,263,7.0,15.0,50,0.00,,,0.23,LWC V2.00 B2112,2013-01-09 22:13:00,
2013-01-09 14:19:00,45.5,27.5,29.59,WNW,282,7.0,10.0,49,0.00,,,0.23,LWC V2.00 B2112,2013-01-09 22:19:00,
2013-01-09 14:24:00,45.4,27.9,29.59,WNW,299,10.0,15.0,50,0.00,,,0.23,LWC V2.00 B2112,2013-01-09 22:24:00,
2013-01-09 14:29:00,45.2,28.6,29.59,WNW,294,4.0,10.0,52,0.00,,,0.23,LWC V2.00 B2112,2013-01-09 22:29:00,
2013-01-09 14:34:00,45.1,28.5,29.59,West,275,0.0,9.0,52,0.00,,,0.23,LWC V2.00 B2112,2013-01-09 22:34:00,
2013-01-09 14:39:00,44.9,28.8,29.59,ESE,114,6.0,15.0,53,0.00,,,0.23,LWC V2.00 B2112,2013-01-09 22:39:00,
2013-01-09 14:44:00,44.6,29.0,29.60,NW,304,0.0,1.0,54,0.00,,,0.23,LWC V2.00 B2112,2013-01-09 22:44:00,
2013-01-09 14:49:00,44.1,29.0,29.60,SW,236,0.0,10.0,55,0.00,,,0.23,LWC V2.00 B2112,2013-01-09 22:49:00,
2013-01-09 14:54:00,43.9,28.8,29.60,SW,232,2.0,7.0,55,0.00,,,0.23,LWC V2.00 B2112,2013-01-09 22:54:00,
2013-01-09 14:59:00,42.9,31.6,29.61,SW,236,0.0,0.0,64,0.00,,,0.23,LWC V2.00 B2112,2013-01-09 22:59:00,
2013-01-09 15:04:00,42.1,30.0,29.61,SW,236,0.0,0.0,62,0.00,,,0.23,LWC V2.00 B2112,2013-01-09 23:04:00,
2013-01-09 15:09:00,41.5,30.6,29.61,SW,236,0.0,0.0,65,0.00,,,0.23,LWC V2.00 B2112,2013-01-09 23:09:00,
2013-01-09 15:14:00,40.9,30.4,29.62,SW,236,0.0,1.0,66,0.00,,,0.23,LWC V2.00 B2112,2013-01-09 23:14:00,
2013-01-09 15:19:00,40.5,29.7,29.62,WSW,247,0.0,4.0,65,0.00,,,0.23,LWC V2.00 B2112,2013-01-09 23:19:00,
2013-01-09 15:24:00,40.1,29.7,29.62,WNW,301,4.0,6.0,66,0.00,,,0.23,LWC V2.00 B2112,2013-01-09 23:24:00,
2013-01-09 15:29:00,40.2,29.4,29.62,WNW,299,2.0,4.0,65,0.00,,,0.23,LWC V2.00 B2112,2013-01-09 23:29:00,
2013-01-09 15:34:00,40.8,28.4,29.62,WNW,284,2.0,8.0,61,0.00,,,0.23,LWC V2.00 B2112,2013-01-09 23:34:00,
2013-01-09 15:38:00,41.3,27.2,29.62,WNW,282,0.0,6.0,57,0.00,,,0.23,LWC V2.00 B2112,2013-01-09 23:38:00,
2013-01-09 15:43:00,41.3,28.9,29.63,WNW,284,0.0,1.0,61,0.00,,,0.23,LWC V2.00 B2112,2013-01-09 23:43:00,
2013-01-09 15:48:00,40.5,30.0,29.63,WNW,287,0.0,4.0,66,0.00,,,0.23,LWC V2.00 B2112,2013-01-09 23:48:00,
2013-01-09 15:53:00,39.3,28.9,29.63,WNW,287,0.0,0.0,66,0.00,,,0.23,LWC V2.00 B2112,2013-01-09 23:53:00,
2013-01-09 15:58:00,39.6,27.3,29.63,West,267,2.0,2.0,61,0.00,,,0.23,LWC V2.00 B2112,2013-01-09 23:58:00,
2013-01-09 16:03:00,41.1,24.4,29.63,West,277,6.0,7.0,51,0.00,,,0.23,LWC V2.00 B2112,2013-01-10 00:03:00,
2013-01-09 16:08:00,41.8,24.5,29.63,South,191,4.0,6.0,50,0.00,,,0.23,LWC V2.00 B2112,2013-01-10 00:08:00,
2013-01-09 16:13:00,40.8,27.6,29.63,SSW,192,0.0,0.0,59,0.00,,,0.24,LWC V2.00 B2112,2013-01-10 00:13:00,
2013-01-09 16:18:00,39.5,27.2,29.63,SSW,192,0.0,0.0,61,0.00,,,0.24,LWC V2.00 B2112,2013-01-10 00:18:00,
2013-01-09 16:23:00,39.3,25.4,29.63,SSW,212,2.0,4.0,57,0.00,,,0.24,LWC V2.00 B2112,2013-01-10 00:23:00,
2013-01-09 16:28:00,39.3,25.8,29.65,West,271,1.0,2.0,58,0.00,,,0.24,LWC V2.00 B2112,2013-01-10 00:28:00,
2013-01-09 16:33:00,39.3,27.0,29.65,West,271,0.0,0.0,61,0.00,,,0.24,LWC V2.00 B2112,2013-01-10 00:33:00,
2013-01-09 16:38:00,38.6,27.5,29.65,West,271,0.0,0.0,64,0.00,,,0.24,LWC V2.00 B2112,2013-01-10 00:38:00,
2013-01-09 16:43:00,37.9,26.8,29.66,West,271,0.0,0.0,64,0.00,,,0.24,LWC V2.00 B2112,2013-01-10 00:43:00,
2013-01-09 16:48:00,37.0,27.4,29.66,West,271,0.0,2.0,68,0.00,,,0.24,LWC V2.00 B2112,2013-01-10 00:48:00,
2013-01-09 16:51:00,36.8,27.9,29.66,SW,229,1.0,6.0,70,0.00,,,0.24,LWC V2.00 B2112,2013-01-10 00:51:00,
2013-01-09 16:56:00,35.9,26.7,29.66,SW,229,0.0,0.0,69,0.00,,,0.24,LWC V2.00 B2112,2013-01-10 00:56:00,
2013-01-09 17:01:00,35.6,27.1,29.66,SW,229,0.0,0.0,71,0.00,,,0.24,LWC V2.00 B2112,2013-01-10 01:01:00,
2013-01-09 17:06:00,35.3,27.2,29.66,SW,229,0.0,0.0,72,0.00,,,0.24,LWC V2.00 B2112,2013-01-10 01:06:00,
2013-01-09 17:11:00,34.6,27.2,29.66,SW,229,0.0,0.0,74,0.00,,,0.24,LWC V2.00 B2112,2013-01-10 01:11:00,
2013-01-09 17:16:00,33.8,26.1,29.66,SW,232,4.0,4.0,73,0.00,,,0.24,LWC V2.00 B2112,2013-01-10 01:16:00,
2013-01-09 17:21:00,33.5,26.1,29.66,SW,232,0.0,0.0,74,0.00,,,0.24,LWC V2.00 B2112,2013-01-10 01:21:00,
2013-01-09 17:26:00,33.1,26.4,29.67,SW,232,0.0,0.0,76,0.00,,,0.24,LWC V2.00 B2112,2013-01-10 01:26:00,
2013-01-09 17:31:00,32.9,26.5,29.67,SW,232,0.0,0.0,77,0.00,,,0.24,LWC V2.00 B2112,2013-01-10 01:31:00,
2013-01-09 17:36:00,32.4,26.6,29.67,SW,232,0.0,1.0,79,0.00,,,0.24,LWC V2.00 B2112,2013-01-10 01:36:00,
2013-01-09 17:41:00,32.1,26.0,29.68,SW,232,0.0,0.0,78,0.00,,,0.24,LWC V2.00 B2112,2013-01-10 01:41:00,
2013-01-09 17:46:00,32.7,26.3,29.68,SSE,164,2.0,2.0,77,0.00,,,0.24,LWC V2.00 B2112,2013-01-10 01:46:00,
2013-01-09 17:51:00,32.4,26.0,29.68,SSE,164,0.0,0.0,77,0.00,,,0.24,LWC V2.00 B2112,2013-01-10 01:51:00,
2013-01-09 17:56:00,31.8,25.4,29.68,SSE,164,0.0,0.0,77,0.00,,,0.24,LWC V2.00 B2112,2013-01-10 01:56:00,
2013-01-09 18:01:00,31.8,26.0,29.68,SSE,164,0.0,2.0,79,0.00,,,0.24,LWC V2.00 B2112,2013-01-10 02:01:00,
2013-01-09 18:06:00,31.2,24.8,29.68,South,174,1.0,4.0,77,0.00,,,0.24,LWC V2.00 B2112,2013-01-10 02:06:00,
2013-01-09 18:11:00,31.0,25.3,29.69,SSE,160,0.0,4.0,79,0.00,,,0.24,LWC V2.00 B2112,2013-01-10 02:11:00,
2013-01-09 18:16:00,30.7,25.0,29.69,SSE,160,0.0,0.0,79,0.00,,,0.24,LWC V2.00 B2112,2013-01-10 02:16:00,
2013-01-09 18:21:00,30.4,25.3,29.69,SSE,161,6.0,6.0,81,0.00,,,0.24,LWC V2.00 B2112,2013-01-10 02:21:00,
2013-01-09 18:26:00,30.9,24.9,29.70,WSW,241,0.0,2.0,78,0.00,,,0.24,LWC V2.00 B2112,2013-01-10 02:26:00,
2013-01-09 18:31:00,30.7,25.0,29.70,NE,34,2.0,6.0,79,0.00,,,0.24,LWC V2.00 B2112,2013-01-10 02:31:00,
2013-01-09 18:36:00,31.0,25.3,29.70,WNW,301,6.0,8.0,79,0.00,,,0.24,LWC V2.00 B2112,2013-01-10 02:36:00,
2013-01-09 18:41:00,30.4,25.0,29.70,WNW,294,2.0,2.0,80,0.00,,,0.24,LWC V2.00 B2112,2013-01-10 02:41:00,
2013-01-09 18:46:00,30.1,24.4,29.70,WNW,285,2.0,6.0,79,0.00,,,0.24,LWC V2.00 B2112,2013-01-10 02:46:00,
2013-01-09 18:51:00,30.7,24.7,29.70,WNW,299,4.0,7.0,78,0.00,,,0.24,LWC V2.00 B2112,2013-01-10 02:51:00,
2013-01-09 18:56:00,30.7,24.7,29.70,SW,232,2.0,4.0,78,0.00,,,0.24,LWC V2.00 B2112,2013-01-10 02:56:00,
2013-01-09 19:01:00,30.3,24.6,29.70,SW,215,0.0,2.0,79,0.00,,,0.24,LWC V2.00 B2112,2013-01-10 03:01:00,
2013-01-09 19:06:00,30.6,25.2,29.70,WSW,244,4.0,4.0,80,0.00,,,0.24,LWC V2.00 B2112,2013-01-10 03:06:00,
2013-01-09 19:11:00,30.3,24.3,29.71,WNW,287,0.0,0.0,78,0.00,,,0.24,LWC V2.00 B2112,2013-01-10 03:11:00,
2013-01-09 19:16:00,30.0,24.3,29.71,ENE,58,0.0,0.0,79,0.00,,,0.24,LWC V2.00 B2112,2013-01-10 03:16:00,
2013-01-09 19:21:00,29.4,24.0,29.71,NW,312,0.0,4.0,80,0.00,,,0.24,LWC V2.00 B2112,2013-01-10 03:21:00,
2013-01-09 19:26:00,29.5,24.4,29.71,NW,313,2.0,4.0,81,0.00,,,0.24,LWC V2.00 B2112,2013-01-10 03:26:00,
2013-01-09 19:31:00,29.5,24.1,29.71,NW,309,0.0,0.0,80,0.00,,,0.24,LWC V2.00 B2112,2013-01-10 03:31:00,
2013-01-09 19:36:00,29.3,24.2,29.71,NW,309,6.0,6.0,81,0.00,,,0.24,LWC V2.00 B2112,2013-01-10 03:36:00,
2013-01-09 19:41:00,29.1,24.0,29.72,SW,233,2.0,6.0,81,0.00,,,0.24,LWC V2.00 B2112,2013-01-10 03:41:00,
2013-01-09 19:46:00,29.1,24.6,29.72,NW,309,0.0,0.0,83,0.00,,,0.24,LWC V2.00 B2112,2013-01-10 03:46:00,
2013-01-09 19:51:00,29.0,24.2,29.72,NW,309,0.0,2.0,82,0.00,,,0.24,LWC V2.00 B2112,2013-01-10 03:51:00,
2013-01-09 19:56:00,28.7,23.9,29.73,NW,309,1.0,1.0,82,0.00,,,0.24,LWC V2.00 B2112,2013-01-10 03:56:00,
2013-01-09 20:01:00,28.4,23.6,29.73,NW,309,0.0,0.0,82,0.00,,,0.24,LWC V2.00 B2112,2013-01-10 04:01:00,
2013-01-09 20:06:00,28.1,23.6,29.73,NW,309,2.0,2.0,83,0.00,,,0.24,LWC V2.00 B2112,2013-01-10 04:06:00,
2013-01-09 20:11:00,28.1,23.9,29.73,NW,309,0.0,1.0,84,0.00,,,0.24,LWC V2.00 B2112,2013-01-10 04:11:00,
2013-01-09 20:16:00,27.9,23.7,29.73,NW,309,4.0,4.0,84,0.00,,,0.24,LWC V2.00 B2112,2013-01-10 04:16:00,
2013-01-09 20:21:00,27.8,23.6,29.73,NW,309,0.0,2.0,84,0.00,,,0.24,LWC V2.00 B2112,2013-01-10 04:21:00,
2013-01-09 20:26:00,27.8,23.9,29.73,NW,309,0.0,0.0,85,0.00,,,0.24,LWC V2.00 B2112,2013-01-10 04:26:00,
2013-01-09 20:31:00,27.6,23.4,29.73,NW,309,0.0,0.0,84,0.00,,,0.24,LWC V2.00 B2112,2013-01-10 04:31:00,
2013-01-09 20:36:00,27.5,23.6,29.73,NW,309,2.0,2.0,85,0.00,,,0.24,LWC V2.00 B2112,2013-01-10 04:36:00,
2013-01-09 20:41:00,27.9,23.1,29.73,NW,309,0.0,0.0,82,0.00,,,0.24,LWC V2.00 B2112,2013-01-10 04:41:00,
2013-01-09 20:46:00,28.2,22.8,29.73,East,86,0.0,6.0,80,0.00,,,0.24,LWC V2.00 B2112,2013-01-10 04:46:00,
2013-01-09 20:51:00,28.8,23.4,29.73,WNW,296,2.0,6.0,80,0.00,,,0.24,LWC V2.00 B2112,2013-01-10 04:51:00,
2013-01-09 20:56:00,28.5,23.1,29.73,WNW,296,0.0,0.0,80,0.00,,,0.24,LWC V2.00 B2112,2013-01-10 04:56:00,
2013-01-09 21:00:00,28.2,23.1,29.73,WNW,296,0.0,0.0,81,0.00,,,0.24,LWC V2.00 B2112,2013-01-10 05:00:00,
2013-01-09 21:05:00,28.2,22.8,29.73,WNW,295,0.0,0.0,80,0.00,,,0.24,LWC V2.00 B2112,2013-01-10 05:05:00,
2013-01-09 21:10:00,28.7,23.6,29.74,WSW,247,2.0,2.0,81,0.00,,,0.24,LWC V2.00 B2112,2013-01-10 05:10:00,
2013-01-09 21:15:00,30.0,25.2,29.74,NE,37,7.0,8.0,82,0.00,,,0.24,LWC V2.00 B2112,2013-01-10 05:15:00,
2013-01-09 21:20:00,33.2,23.4,29.74,East,86,0.0,2.0,67,0.00,,,0.24,LWC V2.00 B2112,2013-01-10 05:20:00,
2013-01-09 21:25:00,35.5,24.5,29.74,East,80,0.0,10.0,64,0.00,,,0.24,LWC V2.00 B2112,2013-01-10 05:25:00,
2013-01-09 21:30:00,35.6,23.9,29.74,WNW,296,0.0,6.0,62,0.00,,,0.24,LWC V2.00 B2112,2013-01-10 05:30:00,
2013-01-09 21:35:00,35.3,24.4,29.74,WNW,301,0.0,4.0,64,0.00,,,0.24,LWC V2.00 B2112,2013-01-10 05:35:00,
2013-01-09 21:40:00,34.3,24.9,29.75,WNW,301,1.0,1.0,68,0.00,,,0.24,LWC V2.00 B2112,2013-01-10 05:40:00,
2013-01-09 21:45:00,33.4,24.0,29.75,West,267,1.0,4.0,68,0.00,,,0.24,LWC V2.00 B2112,2013-01-10 05:45:00,
2013-01-09 21:50:00,33.2,24.8,29.75,SSE,160,0.0,6.0,71,0.00,,,0.24,LWC V2.00 B2112,2013-01-10 05:50:00,
2013-01-09 21:55:00,32.8,24.1,29.75,West,267,2.0,4.0,70,0.00,,,0.24,LWC V2.00 B2112,2013-01-10 05:55:00,
2013-01-09 22:00:00,32.4,24.4,29.75,West,267,0.0,4.0,72,0.00,,,0.24,LWC V2.00 B2112,2013-01-10 06:00:00,
2013-01-09 22:05:00,31.8,24.1,29.75,West,267,0.0,0.0,73,0.00,,,0.24,LWC V2.00 B2112,2013-01-10 06:05:00,
2013-01-09 22:10:00,31.0,24.0,29.75,West,267,0.0,1.0,75,0.00,,,0.24,LWC V2.00 B2112,2013-01-10 06:10:00,
2013-01-09 22:15:00,30.3,24.0,29.75,West,267,0.0,2.0,77,0.00,,,0.24,LWC V2.00 B2112,2013-01-10 06:15:00,
2013-01-09 22:20:00,29.7,23.7,29.75,West,267,0.0,0.0,78,0.00,,,0.24,LWC V2.00 B2112,2013-01-10 06:20:00,
2013-01-09 22:25:00,30.0,24.3,29.77,West,267,0.0,0.0,79,0.00,,,0.24,LWC V2.00 B2112,2013-01-10 06:25:00,
2013-01-09 22:30:00,29.5,23.8,29.77,West,267,0.0,0.0,79,0.00,,,0.24,LWC V2.00 B2112,2013-01-10 06:30:00,
2013-01-09 22:35:00,28.8,23.4,29.77,West,267,0.0,2.0,80,0.00,,,0.24,LWC V2.00 B2112,2013-01-10 06:35:00,
2013-01-09 22:40:00,28.5,23.4,29.77,West,267,0.0,0.0,81,0.00,,,0.24,LWC V2.00 B2112,2013-01-10 06:40:00,
2013-01-09 22:45:00,27.9,22.5,29.77,NW,326,0.0,4.0,80,0.00,,,0.24,LWC V2.00 B2112,2013-01-10 06:45:00,
2013-01-09 22:50:00,27.8,22.7,29.77,NW,326,0.0,0.0,81,0.00,,,0.24,LWC V2.00 B2112,2013-01-10 06:50:00,
2013-01-09 22:55:00,27.5,22.7,29.76,WNW,282,0.0,0.0,82,0.00,,,0.24,LWC V2.00 B2112,2013-01-10 06:55:00,
2013-01-09 23:00:00,27.5,23.0,29.76,WNW,282,0.0,1.0,83,0.00,,,0.24,LWC V2.00 B2112,2013-01-10 07:00:00,
2013-01-09 23:05:00,28.1,23.6,29.76,WNW,282,0.0,0.0,83,0.00,,,0.24,LWC V2.00 B2112,2013-01-10 07:05:00,
2013-01-09 23:10:00,27.6,23.4,29.76,WSW,239,2.0,6.0,84,0.00,,,0.24,LWC V2.00 B2112,2013-01-10 07:10:00,
2013-01-09 23:15:00,27.6,23.1,29.76,NW,322,0.0,0.0,83,0.00,,,0.24,LWC V2.00 B2112,2013-01-10 07:15:00,
2013-01-09 23:20:00,28.4,23.0,29.76,SW,222,4.0,6.0,80,0.00,,,0.24,LWC V2.00 B2112,2013-01-10 07:20:00,
2013-01-09 23:25:00,28.8,22.5,29.75,North,359,0.0,6.0,77,0.00,,,0.24,LWC V2.00 B2112,2013-01-10 07:25:00,
2013-01-09 23:30:00,29.0,22.7,29.75,West,263,6.0,7.0,77,0.00,,,0.24,LWC V2.00 B2112,2013-01-10 07:30:00,
2013-01-09 23:35:00,29.3,23.3,29.75,NNW,330,0.0,2.0,78,0.00,,,0.24,LWC V2.00 B2112,2013-01-10 07:35:00,
2013-01-09 23:40:00,29.5,22.9,29.76,NNW,330,0.0,0.0,76,0.00,,,0.24,LWC V2.00 B2112,2013-01-10 07:40:00,
2013-01-09 23:45:00,29.4,23.1,29.76,NNW,330,0.0,0.0,77,0.00,,,0.00,LWC V2.00 B2112,2013-01-10 07:45:00,
2013-01-09 23:50:00,29.5,22.9,29.76,West,268,0.0,0.0,76,0.00,,,0.00,LWC V2.00 B2112,2013-01-10 07:50:00,
2013-01-09 23:55:00,30.4,22.1,29.75,WSW,248,4.0,6.0,71,0.00,,,0.00,LWC V2.00 B2112,2013-01-10 07:55:00,